Location: Colonia Mina de C?rbuni
(46.1667°N, 22.7167°E)
Time: 07:35:14
(UTC+00:00)

Tiros 1 - Pass Details

Date: 27 April 2024
Orbit: 624 x 657 km, 48.4° (Epoch: 26 May)

Event Time Altitude Azimuth Distance (km) Brightness Sun altitude
Rises 20:33:35 0° 245° (WSW) 2,946 10.6 -24.5°
Reaches altitude 10° 20:35:56 10° 244° (WSW) 2,033 9.7 -24.7°
Enters shadow 20:37:59 26° 241° (WSW) 1,266 8.6 -24.9°
